Location: Groß Eilstorf
(52.8200°N, 9.4552°E)
Time: 20:25:52
(UTC+00:00)

Cosmos 2034 Rocket - Pass Details

Date: 15 May 2026
Orbit: 956 x 1001 km, 82.9° (Epoch: 8 June)

Event Time Altitude Azimuth Distance (km) Brightness Sun altitude
Exits shadow 21:58:34 14° 202° (SSW) 2,507 5.7 -16.1°
Maximum altitude 22:04:11 68° 283° (WNW) 1,074 4.3 -16.4°
Drops below altitude 10° 22:10:31 10° 7° (N) 2,761 7.4 -16.6°
Sets 22:13:04 0° 10° (N) 3,707 8.2 -16.7°
